Вернуться в каталог

COSMOS 663 DEB

АктивенPO
NORAD 45505·DEBRIS·🇷🇺 Russia

Запущен Jun 27, 1974 с Plesetsk Cosmodrome

Loading…

Ближайшие Пролёты (ближайшие 24 часа)

TLE

СвежийSource: Space-Track

Эпоха: Sep 13, 2026, 20:33 UTC

1 45505U 74048C   26256.85679683  .00000334  00000-0  31176-3 0  9996
2 45505  82.9457 100.6049 0023843 332.6427  27.3474 13.79040620624116

Отслеживайте COSMOS 663 DEB в реальном времени с AllMySat

Download on the App Store